This is the latest recevied weather packets stored in our database for station/object KC8ZBC. If no packets are shown the sender has not sent any weather packets the latest 10 day(s).
| Time | Temp. | Humidity | Pressure | Rain* | Wind** | Luminosity | Snow |
|---|---|---|---|---|---|---|---|
| 1777602216 | 6.11° C | 70% | 989.7 hPa | 0 mm | - | 0 W/m² | - |
| 1777601911 | 6.11° C | 68% | 989.5 hPa | 0 mm | - | 0 W/m² | - |
| 1777601606 | 6.11° C | 70% | 989.5 hPa | 0 mm | - | 0 W/m² | - |
| 1777601301 | 6.11° C | 66% | 989.4 hPa | 0 mm | - | 0 W/m² | - |
| 1777600999 | 6.11° C | 69% | 989.2 hPa | 0 mm | - | 0 W/m² | - |
| 1777600695 | 6.11° C | 70% | 989.1 hPa | 0 mm | - | 0 W/m² | - |
| 1777600391 | 6.11° C | 67% | 989.1 hPa | 0 mm | - | 0 W/m² | - |
| 1777600087 | 6.67° C | 67% | 989.1 hPa | 0 mm | - | 0 W/m² | - |
| 1777599783 | 6.67° C | 66% | 989 hPa | 0 mm | - | 0 W/m² | - |
| 1777599478 | 6.67° C | 64% | 989 hPa | 0 mm | - | 0 W/m² | - |
| 1777599175 | 6.67° C | 64% | 989 hPa | 0 mm | - | 0 W/m² | - |
| 1777598870 | 6.67° C | 62% | 988.9 hPa | 0 mm | - | 0 W/m² | - |
| 1777598569 | 7.22° C | 60% | 988.8 hPa | 0 mm | - | 0 W/m² | - |
| 1777598265 | 7.22° C | 60% | 988.9 hPa | 0 mm | - | 0 W/m² | - |
| 1777597963 | 7.22° C | 58% | 988.9 hPa | 0 mm | - | 0 W/m² | - |
| 1777597662 | 7.78° C | 61% | 988.9 hPa | 0 mm | - | 0 W/m² | - |
| 1777597357 | 7.78° C | 55% | 988.8 hPa | 0 mm | - | 0 W/m² | - |
| 1777597053 | 7.78° C | 58% | 988.9 hPa | 0 mm | - | 0 W/m² | - |
| 1777596750 | 7.78° C | 56% | 988.8 hPa | 0 mm | - | 0 W/m² | - |
| 1777596446 | 8.33° C | 55% | 988.7 hPa | 0 mm | - | 0 W/m² | - |
| 1777596144 | 8.33° C | 52% | 988.8 hPa | 0 mm | - | 0 W/m² | - |
| 1777595840 | 8.33° C | 50% | 988.6 hPa | 0 mm | - | 0 W/m² | - |
| 1777595535 | 8.33° C | 51% | 988.7 hPa | 0 mm | - | 0 W/m² | - |
| 1777595231 | 8.89° C | 53% | 988.7 hPa | 0 mm | - | 0 W/m² | - |
| 1777594928 | 8.89° C | 51% | 988.7 hPa | 0 mm | - | 1 W/m² | - |
* Rain latest hour (hover to see other rain measurements)
** Current wind speed in m/s (hover to see current wind gust speed)